TimeCST,TemperatureF,Dew PointF,Humidity,Sea Level PressureIn,VisibilityMPH,Wind Direction,Wind SpeedMPH,Gust SpeedMPH,PrecipitationIn,Events,Conditions,WindDirDegrees,DateUTC
12:15 AM,16.0,12.4,86,30.35,10.0,WNW,4.6,-,N/A,,Scattered Clouds,300,2013-02-21 06:15:00
12:35 AM,17.2,12.7,83,30.35,10.0,NW,3.5,-,N/A,,Overcast,310,2013-02-21 06:35:00
12:55 AM,17.6,12.6,81,30.35,10.0,NW,5.8,-,N/A,,Overcast,320,2013-02-21 06:55:00
1:15 AM,18.3,12.9,79,30.35,10.0,NW,4.6,-,N/A,,Overcast,320,2013-02-21 07:15:00
1:35 AM,18.5,13.1,79,30.34,10.0,NNW,4.6,-,N/A,,Overcast,330,2013-02-21 07:35:00
1:55 AM,18.9,13.1,78,30.35,10.0,NNW,3.5,-,N/A,,Overcast,330,2013-02-21 07:55:00
2:15 AM,19.0,12.9,77,30.34,10.0,North,5.8,-,N/A,,Overcast,350,2013-02-21 08:15:00
2:35 AM,19.2,13.1,77,30.33,10.0,North,5.8,-,N/A,,Overcast,10,2013-02-21 08:35:00
2:55 AM,19.2,12.7,76,30.32,10.0,North,5.8,-,N/A,,Overcast,360,2013-02-21 08:55:00
3:15 AM,19.4,12.0,73,30.32,10.0,North,8.1,-,N/A,,Overcast,10,2013-02-21 09:15:00
3:35 AM,19.4,12.0,73,30.33,10.0,North,6.9,-,N/A,,Overcast,360,2013-02-21 09:35:00
3:55 AM,19.8,12.0,72,30.34,10.0,NNW,8.1,-,N/A,,Overcast,340,2013-02-21 09:55:00
4:15 AM,19.8,12.4,73,30.35,10.0,NNW,8.1,-,N/A,,Overcast,330,2013-02-21 10:15:00
4:35 AM,19.8,12.2,72,30.35,10.0,NNW,6.9,-,N/A,,Overcast,340,2013-02-21 10:35:00
4:55 AM,20.1,12.9,74,30.34,10.0,North,6.9,-,N/A,,Overcast,360,2013-02-21 10:55:00
5:15 AM,20.1,12.9,74,30.33,10.0,North,5.8,-,N/A,,Overcast,360,2013-02-21 11:15:00
5:35 AM,20.3,13.3,74,30.35,10.0,Calm,Calm,-,N/A,,Overcast,0,2013-02-21 11:35:00
5:55 AM,20.8,14.4,76,30.32,10.0,NNE,6.9,-,N/A,,Overcast,20,2013-02-21 11:55:00
6:15 AM,21.2,14.7,76,30.32,10.0,NNE,4.6,-,N/A,,Overcast,20,2013-02-21 12:15:00
6:35 AM,22.1,15.6,76,30.34,10.0,NNE,3.5,-,N/A,,Overcast,20,2013-02-21 12:35:00
6:55 AM,22.3,15.8,76,30.35,10.0,Calm,Calm,-,N/A,,Overcast,0,2013-02-21 12:55:00
7:15 AM,22.6,16.7,78,30.35,10.0,Calm,Calm,-,N/A,,Overcast,0,2013-02-21 13:15:00
7:35 AM,22.6,16.7,78,30.33,10.0,North,4.6,-,N/A,,Overcast,10,2013-02-21 13:35:00
7:55 AM,23.2,17.2,78,30.33,10.0,North,9.2,-,N/A,,Overcast,10,2013-02-21 13:55:00
8:15 AM,23.9,18.3,79,30.32,10.0,NNE,9.2,-,N/A,,Overcast,30,2013-02-21 14:15:00
8:35 AM,24.4,18.5,78,30.31,10.0,NE,9.2,-,N/A,,Overcast,40,2013-02-21 14:35:00
8:55 AM,25.5,19.6,78,30.33,7.0,NNE,8.1,-,N/A,,Overcast,30,2013-02-21 14:55:00
9:15 AM,26.6,20.7,78,30.32,10.0,NE,8.1,-,N/A,,Overcast,50,2013-02-21 15:15:00
9:35 AM,27.5,21.4,78,30.32,10.0,NE,8.1,-,N/A,,Overcast,50,2013-02-21 15:35:00
9:55 AM,27.1,21.2,78,30.33,10.0,NE,4.6,-,N/A,,Overcast,40,2013-02-21 15:55:00
10:15 AM,28.0,21.7,77,30.32,10.0,ENE,8.1,-,N/A,,Overcast,60,2013-02-21 16:15:00
10:35 AM,29.1,22.6,77,30.30,10.0,ENE,9.2,-,N/A,,Overcast,60,2013-02-21 16:35:00
10:55 AM,30.2,23.5,76,30.32,10.0,East,10.4,16.1,N/A,,Overcast,90,2013-02-21 16:55:00
11:15 AM,30.7,23.7,75,30.29,10.0,ENE,11.5,-,N/A,,Overcast,70,2013-02-21 17:15:00
11:35 AM,31.1,23.5,74,30.27,10.0,ENE,16.1,-,N/A,,Overcast,60,2013-02-21 17:35:00
11:55 AM,31.1,24.1,75,30.26,10.0,ENE,15.0,-,N/A,,Overcast,70,2013-02-21 17:55:00
12:15 PM,31.8,23.7,72,30.26,10.0,East,16.1,-,N/A,,Overcast,90,2013-02-21 18:15:00
12:35 PM,31.8,23.7,72,30.24,10.0,East,15.0,19.6,N/A,,Overcast,80,2013-02-21 18:35:00
12:55 PM,31.5,24.1,74,30.21,10.0,East,17.3,21.9,N/A,,Overcast,90,2013-02-21 18:55:00
1:15 PM,30.9,24.1,76,30.19,10.0,ENE,15.0,20.7,N/A,,Overcast,70,2013-02-21 19:15:00
1:35 PM,30.2,24.1,78,30.18,10.0,ENE,18.4,24.2,N/A,,Overcast,60,2013-02-21 19:35:00
1:55 PM,29.1,23.9,81,30.19,10.0,ENE,13.8,25.3,N/A,,Overcast,70,2013-02-21 19:55:00
2:15 PM,28.9,23.9,81,30.20,10.0,ENE,17.3,21.9,N/A,,Overcast,70,2013-02-21 20:15:00
2:35 PM,28.4,23.9,83,30.21,10.0,East,15.0,-,N/A,,Overcast,80,2013-02-21 20:35:00
2:55 PM,28.2,23.7,83,30.21,10.0,ENE,15.0,20.7,N/A,,Overcast,70,2013-02-21 20:55:00
3:15 PM,27.7,23.0,83,30.21,10.0,East,13.8,-,N/A,,Overcast,80,2013-02-21 21:15:00
3:35 PM,27.5,23.0,83,30.20,10.0,East,15.0,-,N/A,,Overcast,90,2013-02-21 21:35:00
3:55 PM,27.1,21.9,81,30.20,10.0,East,13.8,-,N/A,,Overcast,90,2013-02-21 21:55:00
4:15 PM,26.6,20.3,77,30.19,10.0,East,12.7,-,N/A,,Overcast,80,2013-02-21 22:15:00
4:35 PM,26.6,20.3,77,30.18,10.0,East,10.4,17.3,N/A,,Overcast,90,2013-02-21 22:35:00
4:55 PM,26.6,20.3,77,30.16,10.0,East,13.8,-,N/A,,Overcast,80,2013-02-21 22:55:00
5:15 PM,27.0,20.3,76,30.16,10.0,East,11.5,-,N/A,,Overcast,80,2013-02-21 23:15:00
5:35 PM,26.6,19.2,74,30.14,10.0,East,16.1,21.9,N/A,,Overcast,80,2013-02-21 23:35:00
5:55 PM,26.6,19.2,74,30.16,10.0,East,15.0,-,N/A,,Overcast,90,2013-02-21 23:55:00
6:15 PM,26.4,19.2,74,30.13,10.0,East,16.1,20.7,N/A,,Overcast,100,2013-02-22 00:15:00
6:35 PM,26.6,19.4,74,30.12,10.0,East,13.8,-,N/A,,Overcast,100,2013-02-22 00:35:00
6:55 PM,26.6,19.6,75,30.12,10.0,East,13.8,18.4,N/A,,Overcast,100,2013-02-22 00:55:00
7:15 PM,26.6,19.9,76,30.12,10.0,East,11.5,-,N/A,,Overcast,100,2013-02-22 01:15:00
7:35 PM,26.6,19.6,75,30.11,10.0,East,15.0,19.6,N/A,,Overcast,100,2013-02-22 01:35:00
7:55 PM,26.6,19.8,75,30.08,10.0,East,16.1,19.6,N/A,,Overcast,100,2013-02-22 01:55:00
8:15 PM,26.6,19.8,75,30.06,10.0,East,19.6,25.3,N/A,,Overcast,100,2013-02-22 02:15:00
8:35 PM,26.8,19.8,75,30.03,10.0,East,18.4,25.3,N/A,,Overcast,100,2013-02-22 02:35:00
8:55 PM,27.0,19.9,75,30.02,10.0,East,19.6,25.3,N/A,,Overcast,100,2013-02-22 02:55:00
9:15 PM,27.0,20.1,75,30.00,7.0,East,23.0,32.2,N/A,Snow,Light Snow,90,2013-02-22 03:15:00
9:35 PM,27.0,20.3,76,30.00,5.0,East,21.9,26.5,N/A,Snow,Light Snow,90,2013-02-22 03:35:00
9:55 PM,26.6,21.6,81,30.00,2.0,East,13.8,23.0,N/A,Snow,Light Snow,90,2013-02-22 03:55:00
10:15 PM,25.7,22.6,88,30.01,1.2,East,12.7,21.9,N/A,Snow,Snow,100,2013-02-22 04:15:00
10:35 PM,24.8,23.0,93,30.00,1.0,East,13.8,-,N/A,Snow,Snow,90,2013-02-22 04:35:00
10:55 PM,25.2,23.9,95,29.98,1.0,East,13.8,-,N/A,Snow,Light Snow,80,2013-02-22 04:55:00
11:15 PM,25.2,23.9,95,29.97,0.8,East,16.1,-,N/A,Snow,Snow,80,2013-02-22 05:15:00
11:35 PM,25.2,23.9,95,29.97,1.0,East,13.8,-,N/A,Snow,Light Snow,90,2013-02-22 05:35:00
11:55 PM,25.2,23.9,95,29.96,1.0,East,12.7,-,N/A,Snow,Snow,90,2013-02-22 05:55:00